Location: Newark
(52.8662°N, 8.1982°W)
Time: 22:01:59
(UTC+00:00)

ISS - Pass Details

Date: 23 November 2019
Orbit: 411 x 421 km, 51.6° (Epoch: 13 December)

Event Time Altitude Azimuth Distance (km) Brightness Sun altitude
Rises 18:10:46 0° 194° (SSW) 2,347 0.5 -14.9°
Reaches altitude 10° 18:13:59 10° 160° (SSE) 1,493 -1.0 -15.4°
Enters shadow 18:15:03 12° 142° (SE) 1,404 -1.3 -15.5°
